Weather History for KNBC - February, 2014

Change the Weather History Date:

Saturday, February 15, 2014

  Actual Average Record
Temperature  
Mean Temperature 49 °F -  
Max Temperature 57 °F 64 °F 57 °F (2014)
Min Temperature 37 °F 42 °F 36 °F (2015)
Degree Days  
Heating Degree Days 16    
Moisture  
Dew Point 36 °F    
Average Humidity 60    
Maximum Humidity 89    
Minimum Humidity 28    
Precipitation  
Precipitation 0.03 in - - ()
Sea Level Pressure  
Sea Level Pressure 29.87 in    
Wind  
Wind Speed 12 mph (West)    
Max Wind Speed 23 mph    
Max Gust Speed 31 mph    
Visibility 10 miles    
Events Rain    
Averages and records for this station are not official NWS values.
T = Trace of Precipitation, MM = Missing Value Source: NWS Daily Summary

Daily Weather History Graph

Daily Weather History Graph

Search for Another Location

Airport or City:

Trip Planner

Search our weather history database for the weather conditions in past years. The results will help you decide how hot, cold, wet, or windy it might be!

Date:

Astronomy

Feb. 15, 2014 Rise Set
Actual Time 7:05 AM EST 6:08 PM EST
Civil Twilight 6:40 AM EST 6:33 PM EST
Nautical Twilight 6:11 AM EST 7:02 PM EST
Astronomical Twilight 5:43 AM EST 7:31 PM EST
Moon 7:01 PM EST (2/15) 7:08 AM EST (2/15)
Length of Visible Light 11h 53m
Length of Day
11h 03m
Full, 100% of the Moon is Illuminated
Feb 15
Full
Feb 22
Last Quarter
Mar 1
New
Mar 8
First Quarter
Mar 16
Full

Hourly Weather History & Observations

Time (EST) Temp. Windchill Dew Point Humidity Pressure Visibility Wind Dir Wind Speed Gust Speed Precip Events Conditions
12:56 AM 52.0 °F - 42.1 °F 69% 29.77 in 10.0 mi SW 9.2 mph - N/A   Clear
1:56 AM 51.1 °F - 43.0 °F 74% 29.73 in 10.0 mi SSW 10.4 mph - N/A   Clear
2:56 AM 51.1 °F - 45.0 °F 80% 29.70 in 10.0 mi SSW 9.2 mph - 0.00 in Rain Light Rain
3:56 AM 50.0 °F - 46.0 °F 86% 29.68 in 7.0 mi SSW 11.5 mph 19.6 mph 0.02 in Rain Light Rain
4:13 AM 50.0 °F - 46.0 °F 86% 29.69 in 9.0 mi SW 17.3 mph 25.3 mph 0.00 in   Overcast
4:36 AM 50.0 °F - 46.9 °F 89% 29.68 in 10.0 mi WSW 15.0 mph 23.0 mph 0.01 in   Overcast
4:56 AM 50.0 °F - 46.9 °F 89% 29.68 in 10.0 mi SW 12.7 mph - 0.01 in   Overcast
5:56 AM 51.1 °F - 46.0 °F 83% 29.70 in 10.0 mi West 11.5 mph 25.3 mph N/A   Mostly Cloudy
6:21 AM 51.1 °F - 46.0 °F 83% 29.71 in 10.0 mi WNW 11.5 mph - N/A   Mostly Cloudy
6:40 AM 51.1 °F - 45.0 °F 80% 29.72 in 10.0 mi WNW 9.2 mph - N/A   Overcast
6:56 AM 51.1 °F - 43.0 °F 74% 29.74 in 10.0 mi WNW 11.5 mph 20.7 mph N/A   Overcast
7:56 AM 50.0 °F - 39.9 °F 68% 29.78 in 10.0 mi WNW 17.3 mph 25.3 mph N/A   Mostly Cloudy
8:56 AM 52.0 °F - 39.9 °F 63% 29.81 in 10.0 mi WNW 16.1 mph 28.8 mph N/A   Clear
9:56 AM 52.0 °F - 37.0 °F 57% 29.85 in 10.0 mi NW 23.0 mph 31.1 mph N/A   Mostly Cloudy
10:56 AM 53.1 °F - 33.1 °F 47% 29.88 in 10.0 mi NW 18.4 mph 31.1 mph N/A   Clear
11:56 AM 55.0 °F - 32.0 °F 42% 29.90 in 10.0 mi WNW 17.3 mph 31.1 mph N/A   Clear
12:56 PM 57.0 °F - 32.0 °F 39% 29.90 in 10.0 mi WNW 19.6 mph 29.9 mph N/A   Clear
1:56 PM 57.9 °F - 30.0 °F 35% 29.91 in 10.0 mi NW 18.4 mph 28.8 mph N/A   Clear
2:56 PM 57.9 °F - 28.0 °F 32% 29.94 in 10.0 mi NW 18.4 mph 26.5 mph N/A   Clear
3:56 PM 57.9 °F - 26.1 °F 30% 29.96 in 10.0 mi NW 16.1 mph 27.6 mph N/A   Clear
4:56 PM 57.0 °F - 24.1 °F 28% 29.99 in 10.0 mi NW 10.4 mph 23.0 mph N/A   Clear
5:56 PM 54.0 °F - 24.1 °F 31% 30.03 in 10.0 mi WNW 11.5 mph - N/A   Clear
6:56 PM 51.1 °F - 24.1 °F 35% 30.06 in 10.0 mi WNW 8.1 mph - N/A   Clear
7:56 PM 48.9 °F - 25.0 °F 39% 30.08 in 10.0 mi NW 4.6 mph - N/A   Clear
8:56 PM 42.1 °F 38.4 °F 26.1 °F 53% 30.11 in 10.0 mi West 5.8 mph - N/A   Clear
9:56 PM 41.0 °F 39.0 °F 30.0 °F 65% 30.09 in 10.0 mi West 3.5 mph - N/A   Clear
10:56 PM 43.0 °F 39.5 °F 26.1 °F 51% 30.11 in 10.0 mi WNW 5.8 mph - N/A   Clear
11:56 PM 37.0 °F 32.4 °F 27.0 °F 67% 30.12 in 10.0 mi West 5.8 mph - N/A   Clear